[[{"header":{"parameterUnit":"m.s-1","parameterCategory":1,"la1":30.2991,"la2":30.254,"lo1":-89.0895,"lo2":-89.0444,"dy":0.0017,"dx":0.0017,"nx":28,"ny":28,"refTime":"2025-12-06T03:00:00:Z","depth":0,"parameterNumber":2,"parameterNumberName":"U-component_of_WINDS"},"data":[0,0,0,0,0,0,0,0,0,0,0,0,0,0,0,0,0,0,0,0,0,0,0,0,0,0,0,0,0,0,0,0,0,0,0,0,0,0,0,0,0,0,0,0,0,0,0,0,0,0,0,0,0,0,0,0,0,0,-1.1178,-1.1178,0,-1.1202,-1.1203,-1.1203,-1.1159,-1.1158,-1.1156,-1.1155,-1.1185,-1.1187,-1.119,0,0,0,0,0,0,0,0,0,0,0,0,0,-1.1099,-1.11,-1.1178,-1.1178,-1.1178,-1.1202,-1.1203,-1.1203,-1.1159,-1.1158,-1.1156,-1.1154,-1.1185,-1.1187,-1.119,0,0,0,0,0,0,0,0,0,0,0,0,0,-1.1129,-1.1101,-1.1178,-1.116,-1.1158,-1.1202,-1.1203,-1.1203,-1.116,-1.1158,-1.1155,-1.1153,-1.1184,-1.1187,-1.119,-1.1255,0,0,-1.12,-1.1202,0,0,0,0,0,0,0,0,-1.1128,-1.1132,-1.1162,-1.1161,-1.1159,-1.1175,-1.1186,-1.1221,-1.116,-1.1159,-1.1155,-1.1152,-1.1184,-1.1187,-1.1197,-1.1256,-1.1258,-1.12,-1.1202,-1.1204,-1.1205,0,0,0,0,0,0,0,-1.1125,-1.1131,-1.1188,-1.1162,-1.1161,-1.1152,-1.1154,-1.1192,-1.1184,-1.1159,-1.1156,-1.1159,-1.1183,-1.1194,-1.1197,-1.1258,-1.12,-1.1203,-1.1205,-1.1207,-1.1373,-1.1375,0,0,0,0,0,0,-1.1125,-1.1129,-1.1187,-1.1188,-1.1137,-1.1155,-1.1157,-1.1173,-1.1183,-1.1183,-1.1161,-1.1157,-1.1189,-1.1193,-1.1198,-1.1275,-1.1204,-1.1207,-1.1209,-1.137,-1.1373,-1.1376,0,0,0,0,0,0,-1.1123,-1.113,-1.1186,-1.1158,-1.1164,-1.1159,-1.1176,-1.1174,-1.1185,-1.1185,-1.1184,-1.1173,-1.1188,-1.1194,-1.1241,-1.1276,-1.1208,-1.1211,-1.1367,-1.1371,-1.1374,-1.143,0,0,0,0,0,0,-1.1121,-1.113,-1.1154,-1.1159,-1.1166,-1.1227,-1.1179,-1.1176,-1.119,-1.1185,-1.1196,-1.1196,-1.1186,-1.1236,-1.1244,-1.1279,-1.1214,-1.1364,-1.1369,-1.1373,-1.1425,-1.1435,-1.1443,0,0,0,0,0,-1.1119,-1.1169,-1.1155,-1.1162,-1.1195,-1.1229,-1.1233,-1.122,-1.1193,-1.1217,-1.1217,-1.1195,-1.127,-1.1241,-1.125,-1.1286,-1.1362,-1.1368,-1.1373,-1.1421,-1.1433,-1.1443,0,0,0,0,0,0,-1.117,-1.117,-1.1154,-1.1207,-1.1218,-1.1221,-1.1252,-1.1233,-1.1254,-1.1248,-1.1232,-1.1235,-1.1286,-1.1291,-1.1259,-1.135,-1.1312,-1.1319,-1.1345,-1.1357,-1.1366,-1.1364,-1.1217,0,0,0,0,0,-1.1187,-1.1213,-1.1212,-1.1259,-1.1266,-1.1258,-1.1272,-1.1261,-1.1272,-1.1277,-1.1281,-1.1294,-1.1321,-1.1339,-1.1363,-1.1425,-1.1427,-1.1454,-1.1463,-1.1471,-1.1478,-1.1512,-1.1524,-1.1394,-1.1394,-1.1394,0,0,-1.1224,-1.1227,-1.1245,-1.127,-1.1277,-1.1306,-1.1262,-1.1295,-1.1317,-1.1283,-1.1327,-1.133,-1.1345,-1.1399,-1.1424,-1.1405,-1.1514,-1.1478,-1.1484,-1.1487,-1.1519,-1.1531,-1.1542,-1.1397,-1.1397,-1.1396,0,0,-1.1305,-1.131,-1.135,-1.1357,-1.1368,-1.1363,-1.1372,-1.1378,-1.1378,-1.1422,-1.1398,-1.1424,-1.147,-1.1481,-1.1493,-1.1579,-1.156,-1.1587,-1.1636,-1.1669,-1.168,-1.1689,-1.172,-1.1732,-1.1594,-1.1594,-1.1594,0,-1.135,-1.1391,-1.1373,-1.1407,-1.142,-1.1388,-1.143,-1.1439,-1.1458,-1.1468,-1.1446,-1.1503,-1.151,-1.1568,-1.1588,-1.1598,-1.161,-1.1586,-1.1679,-1.1688,-1.1697,-1.1727,-1.1738,-1.1597,-1.1597,-1.1597,-1.1596,0,-1.1446,-1.1475,-1.1506,-1.1524,-1.154,-1.1577,-1.1567,-1.1585,-1.1572,-1.157,-1.1616,-1.1623,-1.1648,-1.1661,-1.1649,-1.1717,-1.1705,-1.1681,-1.1643,-1.1713,-1.1741,-1.1752,-1.1602,-1.1601,-1.16,-1.1599,0,0,-1.1562,-1.1568,-1.158,-1.1588,-1.1597,-1.162,-1.1657,-1.168,-1.1697,-1.1711,-1.1742,-1.1781,-1.1759,-1.1773,-1.1762,-1.1791,-1.186,-1.1764,-1.1764,-1.1783,-1.1936,-1.1955,-1.1968,-1.1846,-1.1849,-1.185,-1.1935,0,-1.1644,-1.1705,-1.169,-1.1752,-1.1779,-1.175,-1.1782,-1.1792,-1.179,-1.1815,-1.1813,-1.1842,-1.181,-1.1818,-1.1845,-1.1846,-1.1891,-1.1839,-1.1878,-1.1879,-1.1876,-1.1983,-1.2002,-1.2082,-1.1946,-1.1948,-1.1949,0,-1.1747,-1.1764,-1.1828,-1.1833,-1.1844,-1.1873,-1.1893,-1.1916,-1.1927,-1.1924,-1.1939,-1.1922,-1.196,-1.192,-1.1974,-1.1939,-1.1954,-1.1957,-1.1959,-1.1964,-1.1919,-1.1991,-1.2107,-1.212,-1.1966,-1.1965,-1.1963,0,-1.1827,-1.1865,-1.1908,-1.1916,-1.1922,-1.1944,-1.1948,-1.1957,-1.1972,-1.199,-1.2,-1.2023,-1.2036,-1.2055,-1.2046,-1.2017,-1.2101,-1.206,-1.2101,-1.2102,-1.2121,-1.2121,-1.2243,-1.2129,-1.2129,-1.2128,-1.2128,0,-1.192,-1.1961,-1.1944,-1.1971,-1.2016,-1.1999,-1.2045,-1.2045,-1.2054,-1.2081,-1.2057,-1.2084,-1.207,-1.2096,-1.209,-1.2135,-1.2141,-1.2141,-1.2139,-1.2144,-1.2144,-1.2155,-1.2149,-1.2132,-1.2131,-1.213,-1.213,0,-1.2017,-1.2007,-1.2053,-1.2055,-1.2056,-1.209,-1.2092,-1.2118,-1.2114,-1.215,-1.2157,-1.2152,-1.2181,-1.2173,-1.2206,-1.2202,-1.226,-1.225,-1.2256,-1.2254,-1.2296,-1.2292,-1.243,-1.2448,-1.2321,-1.2322,-1.2323,0,-1.2078,-1.2109,-1.2114,-1.213,-1.2135,-1.2161,-1.2176,-1.216,-1.2177,-1.2192,-1.2217,-1.2244,-1.2265,-1.2314,-1.2314,-1.2339,-1.2331,-1.2377,-1.2335,-1.2339,-1.2333,-1.2332,-1.2336,-1.2387,-1.2388,-1.2389,-1.239,0,-1.2188,-1.2181,-1.2203,-1.2223,-1.224,-1.2256,-1.2269,-1.2284,-1.2269,-1.229,-1.2319,-1.2335,-1.2367,-1.2395,-1.2418,-1.2424,-1.2406,-1.2403,-1.2414,-1.242,-1.2423,-1.2423,-1.228,-1.2401,-1.24,-1.2399,-1.2398,-1.2398,-1.227,-1.2296,-1.2303,-1.2328,-1.2336,-1.2349,-1.2373,-1.2371,-1.2395,-1.2419,-1.2409,-1.2443,-1.2454,-1.2483,-1.2491,-1.2519,-1.2501,-1.2517,-1.2521,-1.2526,-1.2531,-1.2417,-1.2523,-1.2522,-1.2522,-1.2522,-1.2522,0,-1.2379,-1.2382,-1.2405,-1.2424,-1.2444,-1.2422,-1.2435,-1.2454,-1.2484,-1.2495,-1.2515,-1.2549,-1.2576,-1.2578,-1.2603,-1.2625,-1.2617,-1.2633,-1.2632,-1.2633,-1.2545,-1.2533,-1.2638,-1.2638,-1.2638,-1.2638,-1.2638,-1.2638,-1.2439,-1.2482,-1.2476,-1.2523,-1.2526,-1.2558,-1.2568,-1.258,-1.2589,-1.2627,-1.2649,-1.2649,-1.2657,-1.2682,-1.2706,-1.2706,-1.2718,-1.2736,-1.2733,-1.2651,-1.264,-1.2629,-1.2618,-1.2739,-1.2739,-1.282,-1.282,-1.2821]},{"header":{"parameterUnit":"m.s-1","parameterCategory":1,"la1":30.2991,"la2":30.254,"lo1":-89.0895,"lo2":-89.0444,"dy":0.0017,"dx":0.0017,"nx":28,"ny":28,"refTime":"2025-12-06T03:00:00:Z","depth":0,"parameterNumber":3,"parameterNumberName":"V-component_of_WINDS"},"data":[0,0,0,0,0,0,0,0,0,0,0,0,0,0,0,0,0,0,0,0,0,0,0,0,0,0,0,0,0,0,0,0,0,0,0,0,0,0,0,0,0,0,0,0,0,0,0,0,0,0,0,0,0,0,0,0,0,0,-1.2298,-1.2298,0,-1.2348,-1.2348,-1.2349,-1.2349,-1.2348,-1.2348,-1.2347,-1.2397,-1.2399,-1.2401,0,0,0,0,0,0,0,0,0,0,0,0,0,-1.2201,-1.2202,-1.2297,-1.2298,-1.2299,-1.2348,-1.2348,-1.2349,-1.2349,-1.2348,-1.2348,-1.2347,-1.2396,-1.2399,-1.2401,0,0,0,0,0,0,0,0,0,0,0,0,0,-1.2246,-1.2203,-1.2297,-1.2305,-1.2306,-1.2347,-1.2348,-1.2349,-1.2349,-1.2348,-1.2347,-1.2346,-1.2396,-1.2398,-1.2401,-1.2438,0,0,-1.241,-1.2411,0,0,0,0,0,0,0,0,-1.2243,-1.2249,-1.2303,-1.2304,-1.2306,-1.2341,-1.2332,-1.2379,-1.235,-1.2333,-1.2347,-1.2346,-1.2379,-1.2383,-1.2395,-1.244,-1.2443,-1.241,-1.2412,-1.2413,-1.2414,0,0,0,0,0,0,0,-1.224,-1.2247,-1.2317,-1.2304,-1.2305,-1.2305,-1.231,-1.2341,-1.2361,-1.2334,-1.2334,-1.234,-1.238,-1.2392,-1.2396,-1.2443,-1.241,-1.2413,-1.2414,-1.2416,-1.2522,-1.2523,0,0,0,0,0,0,-1.2236,-1.2245,-1.2316,-1.2319,-1.2272,-1.2308,-1.2314,-1.2331,-1.236,-1.2364,-1.2341,-1.234,-1.2387,-1.2392,-1.2398,-1.2443,-1.2413,-1.2416,-1.2418,-1.2521,-1.2523,-1.2524,0,0,0,0,0,0,-1.2234,-1.2242,-1.2314,-1.2282,-1.2291,-1.231,-1.2329,-1.2332,-1.2345,-1.2366,-1.2369,-1.235,-1.2387,-1.2393,-1.2428,-1.2445,-1.2417,-1.242,-1.252,-1.2522,-1.2523,-1.2535,0,0,0,0,0,0,-1.2231,-1.2241,-1.2256,-1.2282,-1.2293,-1.2344,-1.233,-1.2334,-1.235,-1.2349,-1.2375,-1.2378,-1.2387,-1.2424,-1.2431,-1.2448,-1.2422,-1.2519,-1.2521,-1.2523,-1.2533,-1.2536,-1.2539,0,0,0,0,0,-1.2227,-1.2256,-1.2257,-1.2265,-1.2311,-1.2345,-1.2351,-1.236,-1.2351,-1.2366,-1.2379,-1.2378,-1.2442,-1.2427,-1.2436,-1.2454,-1.2518,-1.252,-1.2523,-1.2531,-1.2536,-1.2539,0,0,0,0,0,0,-1.2231,-1.226,-1.226,-1.2299,-1.232,-1.2345,-1.2364,-1.2364,-1.2388,-1.2386,-1.2396,-1.2402,-1.2437,-1.2449,-1.2432,-1.2492,-1.2479,-1.2483,-1.2482,-1.2487,-1.249,-1.2486,-1.2424,0,0,0,0,0,-1.2236,-1.2262,-1.2286,-1.2317,-1.2328,-1.2344,-1.2359,-1.2364,-1.2386,-1.2394,-1.241,-1.2431,-1.2456,-1.2472,-1.2496,-1.2534,-1.254,-1.2551,-1.2554,-1.2557,-1.2561,-1.2582,-1.2588,-1.2532,-1.2532,-1.2532,0,0,-1.2247,-1.2266,-1.2282,-1.2318,-1.2335,-1.2361,-1.2351,-1.2379,-1.2398,-1.2398,-1.2432,-1.2445,-1.2468,-1.2505,-1.2522,-1.2516,-1.2577,-1.256,-1.2562,-1.2564,-1.2585,-1.2591,-1.2595,-1.2534,-1.2533,-1.2533,0,0,-1.2281,-1.2298,-1.2327,-1.2344,-1.2369,-1.238,-1.2387,-1.2412,-1.2421,-1.2455,-1.2456,-1.2479,-1.2521,-1.2538,-1.2552,-1.2593,-1.2592,-1.26,-1.2618,-1.2639,-1.2643,-1.2647,-1.2662,-1.2667,-1.2604,-1.2604,-1.2604,0,-1.2291,-1.2331,-1.2341,-1.2369,-1.2385,-1.2387,-1.2416,-1.2432,-1.2464,-1.2475,-1.2468,-1.2522,-1.2538,-1.2579,-1.2589,-1.26,-1.2608,-1.2598,-1.2642,-1.2646,-1.265,-1.2664,-1.267,-1.2605,-1.2605,-1.2605,-1.2604,0,-1.2343,-1.237,-1.239,-1.2421,-1.244,-1.2468,-1.2482,-1.2499,-1.2503,-1.2515,-1.255,-1.2569,-1.2597,-1.2608,-1.2611,-1.2649,-1.2645,-1.264,-1.2627,-1.2656,-1.267,-1.2675,-1.2606,-1.2606,-1.2605,-1.2605,0,0,-1.238,-1.2417,-1.2424,-1.2439,-1.2467,-1.2488,-1.2517,-1.2545,-1.256,-1.2581,-1.2605,-1.2642,-1.2637,-1.2654,-1.2659,-1.2678,-1.2709,-1.267,-1.2671,-1.2677,-1.2753,-1.2757,-1.2763,-1.2709,-1.271,-1.2711,-1.2751,0,-1.2416,-1.2468,-1.2478,-1.2522,-1.2547,-1.255,-1.2575,-1.2595,-1.2606,-1.2629,-1.2642,-1.2667,-1.266,-1.2669,-1.2688,-1.2701,-1.2725,-1.2699,-1.2731,-1.2732,-1.2726,-1.277,-1.2774,-1.2811,-1.2756,-1.2757,-1.2758,0,-1.2466,-1.249,-1.2537,-1.2563,-1.2574,-1.2596,-1.2623,-1.2645,-1.2668,-1.2675,-1.2693,-1.2697,-1.2727,-1.2712,-1.2753,-1.2735,-1.2749,-1.2758,-1.276,-1.2763,-1.2747,-1.2775,-1.2823,-1.2828,-1.2766,-1.2766,-1.2765,0,-1.2489,-1.2533,-1.2567,-1.2579,-1.261,-1.2626,-1.2639,-1.2661,-1.2678,-1.2701,-1.2712,-1.2738,-1.2752,-1.2772,-1.2783,-1.2772,-1.2823,-1.281,-1.283,-1.283,-1.2841,-1.284,-1.2892,-1.2849,-1.2849,-1.2849,-1.2849,0,-1.2529,-1.2558,-1.2578,-1.2599,-1.2631,-1.2642,-1.2674,-1.2687,-1.2706,-1.273,-1.2733,-1.2755,-1.2768,-1.2792,-1.28,-1.2833,-1.2839,-1.2845,-1.2847,-1.2845,-1.2845,-1.2855,-1.2852,-1.2851,-1.285,-1.285,-1.285,0,-1.256,-1.2575,-1.2612,-1.2638,-1.2646,-1.2668,-1.2691,-1.2711,-1.2722,-1.2752,-1.2759,-1.2778,-1.2806,-1.2818,-1.2853,-1.2858,-1.2896,-1.2896,-1.2888,-1.2889,-1.2908,-1.2906,-1.2969,-1.2978,-1.2929,-1.2929,-1.293,0,-1.2585,-1.2607,-1.2636,-1.2653,-1.2667,-1.2693,-1.271,-1.2722,-1.2739,-1.2767,-1.2784,-1.2813,-1.2836,-1.288,-1.2896,-1.2923,-1.2923,-1.2944,-1.2927,-1.2925,-1.2924,-1.2923,-1.2925,-1.2946,-1.2947,-1.2947,-1.2948,0,-1.2628,-1.2634,-1.2659,-1.2687,-1.2707,-1.2729,-1.2751,-1.2764,-1.2779,-1.2799,-1.2828,-1.2846,-1.2881,-1.2909,-1.2937,-1.295,-1.2952,-1.2953,-1.2959,-1.2957,-1.2952,-1.2955,-1.2896,-1.2951,-1.2951,-1.295,-1.295,-1.295,-1.2657,-1.2677,-1.2701,-1.2728,-1.2746,-1.2767,-1.2787,-1.2802,-1.2826,-1.2857,-1.2862,-1.2893,-1.2915,-1.2953,-1.2967,-1.2991,-1.2987,-1.2995,-1.2998,-1.3,-1.3001,-1.2948,-1.2996,-1.2996,-1.2996,-1.2996,-1.2996,0,-1.27,-1.2715,-1.2741,-1.2772,-1.2794,-1.2794,-1.2818,-1.2836,-1.2863,-1.2884,-1.2907,-1.2941,-1.2968,-1.2987,-1.3014,-1.303,-1.3032,-1.3037,-1.3036,-1.3039,-1.3003,-1.2996,-1.3036,-1.3036,-1.3036,-1.3036,-1.3036,-1.3036,-1.2725,-1.2759,-1.2768,-1.2812,-1.2827,-1.2858,-1.2872,-1.289,-1.2908,-1.2945,-1.2968,-1.298,-1.3,-1.303,-1.3055,-1.3059,-1.3069,-1.3075,-1.308,-1.3046,-1.3042,-1.3038,-1.303,-1.3077,-1.3077,-1.3114,-1.3114,-1.3114]}]]